Regional Weather Roundup
Issued by NWS Lake Charles, LA

Home | Current Version | Previous Version | Text Only | Print | Product List | Glossary On
Versions: 1 2 3 4 5 6 7 8 9 10 11 12 13 14 15 16 17 18 19 20 21 22 23 24 25 26 27 28 29 30 31 32 33 34 35 36 37 38 39 40 41 42 43 44 45 46 47 48 49 50
000
ASUS44 KLCH 022310
RWRLCH
RWRLCH
REGIONAL WEATHER ROUNDUP
NATIONAL WEATHER SERVICE LAKE CHARLES LA
500 PM CST MON MAR 02 2015

Note: "fair" indicates few or no clouds below 12,000 feet with no
significant weather and/or obstructions to visibility.


ACROSS SOUTHEAST TEXAS

CITY           SKY/WX    TMP DP  RH WIND       PRES   REMARKS
BEAUMONT       CLOUDY    66  59  78 N6        30.18S
BEAUMONT CITY  CLOUDY    60  57  89 NE6       30.18F
ORANGE         CLOUDY    63  59  87 NE6       30.19F
JASPER         CLOUDY    53  50  92 E5        30.23S
$$

ACROSS CENTRAL LOUISIANA

CITY           SKY/WX    TMP DP  RH WIND       PRES   REMARKS
LEESVILLE      FOG       50  49  97 NE8       30.20F VSB 3/4
FULLERTON      FOG       51  48  89 VRB3      30.19F VSB 3/4
ALEXANDRIA INT CLOUDY    47  47 100 VRB6      30.22F FOG
ESLER FIELD    CLOUDY    47  46  97 E3        30.23F
DERIDDER       CLOUDY    54  52  95 CALM      30.22S FOG
OAKDALE        CLOUDY    51  50  95 N6        30.21F FOG
OPELOUSAS      CLOUDY    51  50  95 N8        30.21F
$$

ACROSS SOUTHWEST AND SOUTH CENTRAL LOUISIANA

CITY           SKY/WX    TMP DP  RH WIND       PRES   REMARKS
SULPHUR        CLOUDY    60  58  94 NE5       30.20S
LAKE CHARLES   CLOUDY    58  56  93 E8        30.19F
CHENNAULT INT  CLOUDY    55  55 100 VRB5      30.20F FOG
CAMERON PHI    CLOUDY    61  61 100 N7        30.21S
DEQUINCY       NOT AVBL
JENNINGS       CLOUDY    54  53  97 NE7       30.20F
LAFAYETTE      CLOUDY    57  55  93 N10       30.20S
NEW IBERIA     CLOUDY    62  60  93 N7        30.19F FOG
ABBEVILLE      CLOUDY    62  60  95 N6        30.19S
PATTERSON      CLOUDY    75  70  83 W9        30.18S
SALT POINT       N/A     66  65  96 CALM      30.17S
$$

SELECTED SITES ACROSS THE REGION

CITY           SKY/WX    TMP DP  RH WIND       PRES   REMARKS
HOUSTON BUSH   CLOUDY    59  54  83 N5        30.18F
HOUSTON HOBBY  CLOUDY    63  56  78 NE3       30.16F
GALVESTON      CLOUDY    55  55 100 N6        30.18S FOG
COLLEGE STAT   FOG       45  44  97 N6        30.20F VSB 1
CONROE         CLOUDY    52  51  97 NE3       30.19F FOG
HUNTSVILLE     FOG       50  49  96 CALM      30.19F VSB 1
LUFKIN         CLOUDY    50  46  86 NE6       30.20F FOG
SHREVEPORT     DRIZZLE   43  42  97 E7        30.24F FOG
MONROE         CLOUDY    41  40  96 NE8       30.28F FOG
NATCHEZ MS     CLOUDY    46  45  93 NE3       30.24F
BATON ROUGE    CLOUDY    63  62  97 CALM      30.19F
N.O. INTL ARPT PTSUNNY   72  66  81 NE8       30.17F
SLIDELL        PTSUNNY   73  68  84 E3        30.19S
$$

MARINE REPORTS

STATION/POSITION TIME  TEMP    WIND        PRES    VSBY  WAVE
                       AIR SEA DIR/SP/G                  HT/PER
                 (UTC) (F)     (DEG/KT/KT) (MB)    (MI)  (FT/S)
BUOY 30 S HIGH I 2300   57 59   50/  8/ 10 1021.0F         2/ 6
SEA RIM ST PARK  2300   61      40/  6/  8 1022.2F
PORT ARTHUR      2300      56   70/  4/  8 1022.0S
SABINE PASS N    2300   62 53   60/  8/  8 1021.9S
TEXAS POINT      NOT AVBL
CALCASIEU PASS   2300   59 56   40/  9/ 10   N/A
LK CHARLES BEACH 2300   58                 1022.8S
MARSH ISLAND     2200          160/  1/  4   N/A           0
FRESH WATER LOCK 2300   65 59  170/  5/  5 1021.6F
AMERADA PASS     2300   70 52   CALM  /  2 1021.8F
$$



USA.gov is the U.S. government's official web portal to all federal, state and local government web resources and services.